User: anonymous
Location: Unspecified
(0.0000°N, 0.0000°E)
Time: 04:14:59
(UTC+02:00)
Language:

CZ-4B DEB - Orbit

View from above orbital plane
View from above orbital plane
View from above satellite
View from above satellite

Ground track
Ground track

The orbit data is extracted from the following two-line orbital elements,

1 33411U 08053D   14245.10323554  .00010164  00000-0  58906-3 0  2623
2 33411 097.5130 263.2582 0009798 008.1019 352.0369 15.12344221319915
Epoch (UTC): 02 September 2014 02:28:39
Eccentricity: 0.0009798
inclination: 97.5130°
perigee height: 522 km
apogee height: 536 km
right ascension of ascending node: 263.2582°
argument of perigee: 8.1019°
revolutions per day: 15.12344221
mean anomaly at epoch: 352.0369°
orbit number at epoch: 31991

The dashed part of the orbit path shows where the satellite is in the earth's shadow,  

DLR